TimeEST,TemperatureF,Dew PointF,Humidity,Sea Level PressureIn,VisibilityMPH,Wind Direction,Wind SpeedMPH,Gust SpeedMPH,PrecipitationIn,Events,Conditions,WindDirDegrees,DateUTC
12:07 AM,46.4,39.2,76,29.56,10.0,WSW,3.5,-,0.00,,Overcast,250,2013-01-31 05:07:00
12:54 AM,44.1,36.0,73,29.55,10.0,NW,10.4,17.3,0.00,,Mostly Cloudy,310,2013-01-31 05:54:00
1:54 AM,41.0,33.1,73,29.59,10.0,NW,11.5,-,0.00,,Scattered Clouds,310,2013-01-31 06:54:00
2:54 AM,37.9,30.9,76,29.65,10.0,WNW,15.0,23.0,0.00,Rain,Light Rain,300,2013-01-31 07:54:00
3:54 AM,35.1,28.0,76,29.69,10.0,North,9.2,-,0.00,,Mostly Cloudy,350,2013-01-31 08:54:00
4:54 AM,34.0,25.0,70,29.73,10.0,NNW,13.8,19.6,N/A,,Overcast,330,2013-01-31 09:54:00
5:54 AM,32.0,23.0,69,29.78,10.0,NNW,8.1,-,N/A,,Scattered Clouds,340,2013-01-31 10:54:00
6:54 AM,30.9,19.9,64,29.81,10.0,NNW,11.5,19.6,N/A,,Scattered Clouds,330,2013-01-31 11:54:00
7:54 AM,30.0,19.0,64,29.86,10.0,NW,6.9,-,N/A,,Partly Cloudy,320,2013-01-31 12:54:00
8:54 AM,33.1,19.9,59,29.88,10.0,NW,9.2,-,N/A,,Clear,320,2013-01-31 13:54:00
9:54 AM,35.1,19.0,52,29.90,10.0,NNW,10.4,23.0,N/A,,Clear,330,2013-01-31 14:54:00
10:54 AM,37.0,19.9,50,29.91,10.0,NW,13.8,18.4,N/A,,Clear,310,2013-01-31 15:54:00
11:54 AM,39.0,17.1,41,29.91,10.0,WNW,12.7,20.7,N/A,,Clear,290,2013-01-31 16:54:00
12:54 PM,41.0,19.0,41,29.91,10.0,NNW,11.5,23.0,N/A,,Clear,340,2013-01-31 17:54:00
1:54 PM,42.1,17.1,37,29.91,10.0,WNW,13.8,25.3,N/A,,Partly Cloudy,300,2013-01-31 18:54:00
2:01 PM,42.8,17.6,36,29.91,10.0,NW,16.1,24.2,N/A,,Partly Cloudy,320,2013-01-31 19:01:00
2:54 PM,41.0,16.0,36,29.94,10.0,NW,21.9,39.1,N/A,,Partly Cloudy,320,2013-01-31 19:54:00
3:54 PM,41.0,15.1,35,29.97,10.0,NW,11.5,23.0,N/A,,Clear,310,2013-01-31 20:54:00
4:54 PM,39.9,16.0,38,29.97,10.0,North,10.4,-,N/A,,Clear,350,2013-01-31 21:54:00
5:54 PM,37.9,17.1,43,29.98,10.0,North,5.8,-,N/A,,Clear,10,2013-01-31 22:54:00
6:54 PM,36.0,18.0,48,30.00,10.0,North,5.8,-,N/A,,Clear,360,2013-01-31 23:54:00
7:54 PM,33.1,21.0,61,30.01,10.0,Calm,Calm,-,N/A,,Clear,0,2013-02-01 00:54:00
8:54 PM,30.9,19.9,64,30.02,10.0,Calm,Calm,-,N/A,,Clear,0,2013-02-01 01:54:00
10:54 PM,33.8,21.2,60,29.97,10.0,Variable,4.6,-,N/A,,Clear,0,2013-02-01 03:54:00
11:54 PM,34.0,21.0,59,29.98,10.0,Variable,3.5,-,N/A,,Clear,0,2013-02-01 04:54:00